�������l�o���
Date,Time,MP-1(��Sv/h),MP-2(��Sv/h),MP-3(��Sv/h),MP-4(��Sv/h),MP-5(��Sv/h),MP-6(��Sv/h),MP-7(��Sv/h),MP-8(��Sv/h),����,����(m/s),���J
2020/05/21,00:00,0.660,0.938,0.618,1.146,0.793,0.383,0.666,0.635,�k,6.9,�L
2020/05/21,00:10,0.660,0.934,0.621,1.145,0.794,0.384,0.666,0.634,�k,7.5,�L
2020/05/21,00:20,0.660,0.936,0.621,1.149,0.794,0.385,0.665,0.634,�k,7.5,�L
2020/05/21,00:30,0.659,0.937,0.621,1.149,0.796,0.383,0.666,0.634,�k,7.6,�L
2020/05/21,00:40,0.661,0.937,0.619,1.149,0.793,0.385,0.666,0.635,�k,5.9,�L
2020/05/21,00:50,0.661,0.940,0.620,1.149,0.794,0.384,0.666,0.634,�k,6.1,�L
2020/05/21,01:00,0.661,0.938,0.619,1.149,0.794,0.385,0.667,0.634,�k,5.8,�L
2020/05/21,01:10,0.661,0.939,0.621,1.149,0.794,0.384,0.667,0.635,�k,5.4,�L
2020/05/21,01:20,0.660,0.939,0.619,1.150,0.794,0.385,0.667,0.635,�k,5.5,�L
2020/05/21,01:30,0.660,0.939,0.618,1.148,0.793,0.383,0.664,0.635,�k,5.3,�L
2020/05/21,01:40,0.659,0.938,0.618,1.148,0.793,0.385,0.665,0.635,�k,4.6,�L
2020/05/21,01:50,0.660,0.936,0.622,1.150,0.794,0.384,0.665,0.634,�k,5.0,�L
2020/05/21,02:00,0.661,0.938,0.620,1.149,0.793,0.384,0.666,0.636,�k,5.2,�L
2020/05/21,02:10,0.660,0.937,0.620,1.149,0.796,0.383,0.666,0.635,�k�k��,5.2,�L
2020/05/21,02:20,0.660,0.938,0.620,1.149,0.795,0.384,0.664,0.635,�k,5.1,�L
2020/05/21,02:30,0.659,0.938,0.621,1.150,0.794,0.383,0.666,0.635,�k,4.9,�L
2020/05/21,02:40,0.662,0.937,0.621,1.151,0.795,0.384,0.667,0.636,�k,5.6,�L
2020/05/21,02:50,0.659,0.937,0.620,1.152,0.796,0.383,0.666,0.635,�k,5.6,�L
2020/05/21,03:00,0.660,0.937,0.620,1.150,0.798,0.385,0.667,0.637,�k,5.0,�L
2020/05/21,03:10,0.659,0.938,0.620,1.150,0.796,0.385,0.668,0.636,�k,5.4,�L
2020/05/21,03:20,0.660,0.936,0.619,1.148,0.794,0.383,0.666,0.634,�k�k��,5.0,�L
2020/05/21,03:30,0.658,0.935,0.618,1.146,0.795,0.382,0.667,0.634,�k�k��,5.3,�L
2020/05/21,03:40,0.660,0.935,0.618,1.147,0.794,0.385,0.664,0.634,�k�k��,6.3,�L
2020/05/21,03:50,0.658,0.935,0.618,1.147,0.793,0.383,0.665,0.633,�k�k��,5.6,�L
2020/05/21,04:00,0.659,0.933,0.619,1.143,0.790,0.384,0.665,0.634,�k�k��,6.1,�L
2020/05/21,04:10,0.657,0.934,0.617,1.141,0.792,0.383,0.664,0.633,�k�k��,6.1,�L
2020/05/21,04:20,0.656,0.933,0.619,1.140,0.791,0.383,0.663,0.634,�k�k��,6.4,�L
2020/05/21,04:30,0.658,0.934,0.618,1.141,0.792,0.384,0.666,0.635,�k�k��,6.2,�L
2020/05/21,04:40,0.657,0.932,0.617,1.143,0.791,0.383,0.662,0.634,�k�k��,5.7,�L
2020/05/21,04:50,0.657,0.933,0.619,1.142,0.791,0.384,0.664,0.635,�k�k��,6.4,�L
2020/05/21,05:00,0.658,0.934,0.618,1.143,0.792,0.384,0.665,0.633,�k�k��,5.4,�L
2020/05/21,05:10,0.658,0.933,0.618,1.142,0.793,0.383,0.663,0.634,�k�k��,6.1,�L
2020/05/21,05:20,0.659,0.936,0.617,1.145,0.793,0.384,0.665,0.634,�k�k��,6.7,�L
2020/05/21,05:30,0.658,0.937,0.619,1.145,0.793,0.385,0.665,0.634,�k�k��,5.3,�L
2020/05/21,05:40,0.659,0.936,0.620,1.144,0.795,0.382,0.665,0.634,�k�k��,5.2,�L
2020/05/21,05:50,0.659,0.938,0.618,1.145,0.795,0.384,0.666,0.632,�k�k��,5.0,�L
2020/05/21,06:00,0.660,0.937,0.619,1.146,0.796,0.384,0.666,0.633,�k�k��,5.5,�L
2020/05/21,06:10,0.659,0.936,0.619,1.148,0.795,0.383,0.666,0.635,�k�k��,5.0,�L
2020/05/21,06:20,0.659,0.936,0.618,1.146,0.793,0.383,0.666,0.633,�k�k��,5.5,�L
2020/05/21,06:30,0.659,0.935,0.618,1.145,0.795,0.384,0.666,0.633,�k�k��,6.2,�L
2020/05/21,06:40,0.658,0.934,0.617,1.145,0.793,0.383,0.664,0.633,�k�k��,5.0,�L
2020/05/21,06:50,0.657,0.935,0.618,1.146,0.793,0.384,0.663,0.632,�k,5.1,�L
2020/05/21,07:00,0.657,0.933,0.618,1.142,0.793,0.383,0.664,0.632,�k�k��,5.3,�L
2020/05/21,07:10,0.658,0.934,0.618,1.144,0.795,0.385,0.664,0.634,�k�k��,5.6,�L
2020/05/21,07:20,0.658,0.936,0.618,1.145,0.793,0.384,0.663,0.632,�k�k��,4.9,��
2020/05/21,07:30,0.659,0.938,0.619,1.144,0.795,0.383,0.664,0.635,�k�k��,5.0,�L
2020/05/21,07:40,0.659,0.937,0.620,1.144,0.796,0.383,0.664,0.635,�k�k��,5.1,�L
2020/05/21,07:50,0.659,0.936,0.618,1.146,0.795,0.385,0.665,0.632,�k�k��,6.0,�L
2020/05/21,08:00,0.659,0.937,0.620,1.144,0.796,0.383,0.665,0.634,�k�k��,5.2,�L
2020/05/21,08:10,0.658,0.936,0.620,1.147,0.795,0.384,0.665,0.633,�k,5.1,�L
2020/05/21,08:20,0.660,0.938,0.619,1.147,0.796,0.383,0.665,0.634,�k�k��,4.8,�L
2020/05/21,08:30,0.660,0.937,0.621,1.148,0.794,0.383,0.664,0.634,�k�k��,5.3,�L
2020/05/21,08:40,0.661,0.934,0.620,1.151,0.796,0.384,0.665,0.635,�k�k��,4.7,�L
2020/05/21,08:50,0.663,0.937,0.621,1.149,0.798,0.383,0.664,0.635,�k�k��,4.8,�L
2020/05/21,09:00,0.662,0.941,0.620,1.150,0.797,0.383,0.666,0.635,�k�k��,5.0,�L
2020/05/21,09:10,0.663,0.939,0.622,1.151,0.800,0.384,0.666,0.635,�k�k��,5.0,�L
2020/05/21,09:20,0.662,0.937,0.621,1.151,0.800,0.386,0.666,0.636,�k�k��,5.5,�L
2020/05/21,09:30,0.662,0.936,0.621,1.152,0.799,0.386,0.667,0.636,�k�k��,4.2,�L
2020/05/21,09:40,0.663,0.937,0.623,1.152,0.800,0.385,0.667,0.635,�k�k��,4.4,�L
2020/05/21,09:50,0.662,0.933,0.623,1.151,0.799,0.385,0.668,0.635,�k,4.5,�L
2020/05/21,10:00,0.663,0.939,0.622,1.153,0.801,0.384,0.668,0.635,�k�k��,4.8,�L
2020/05/21,10:10,0.663,0.939,0.622,1.153,0.801,0.385,0.666,0.635,�k�k��,4.4,�L
2020/05/21,10:20,0.665,0.940,0.623,1.155,0.800,0.385,0.667,0.636,�k�k��,4.6,�L
2020/05/21,10:30,0.662,0.940,0.624,1.154,0.801,0.385,0.666,0.634,�k,4.9,�L
2020/05/21,10:40,0.665,0.939,0.625,1.153,0.801,0.387,0.666,0.634,�k,4.3,��
2020/05/21,10:50,0.663,0.942,0.624,1.155,0.800,0.386,0.669,0.632,�k,4.3,��
2020/05/21,11:00,0.666,0.939,0.623,1.155,0.803,0.386,0.669,0.636,�k�k��,5.6,��
2020/05/21,11:10,0.665,0.942,0.625,1.155,0.802,0.386,0.667,0.635,�k�k��,6.1,��
2020/05/21,11:20,0.665,0.940,0.626,1.153,0.801,0.385,0.669,0.636,�k�k��,6.7,��
2020/05/21,11:30,0.663,0.940,0.624,1.156,0.802,0.386,0.669,0.636,�k�k��,6.1,��
2020/05/21,11:40,0.663,0.939,0.627,1.158,0.797,0.386,0.668,0.637,�k�k��,6.1,��
2020/05/21,11:50,0.665,0.940,0.627,1.157,0.799,0.385,0.668,0.636,�k�k��,5.9,��
2020/05/21,12:00,0.665,0.943,0.627,1.160,0.803,0.385,0.669,0.637,�k�k��,6.1,��
2020/05/21,12:10,0.665,0.943,0.625,1.158,0.803,0.385,0.668,0.637,�k�k��,6.0,��
2020/05/21,12:20,0.666,0.942,0.627,1.158,0.803,0.384,0.670,0.635,�k�k��,5.9,��
2020/05/21,12:30,0.666,0.945,0.626,1.158,0.803,0.387,0.668,0.636,�k�k��,5.9,��
2020/05/21,12:40,0.666,0.944,0.627,1.159,0.802,0.386,0.669,0.635,�k�k��,6.5,��
2020/05/21,12:50,0.665,0.942,0.626,1.156,0.803,0.386,0.669,0.636,�k,6.6,��
2020/05/21,13:00,0.665,0.945,0.627,1.160,0.804,0.386,0.669,0.638,�k�k��,6.6,��
2020/05/21,13:10,0.667,0.945,0.628,1.160,0.804,0.386,0.669,0.636,�k�k��,6.5,��
2020/05/21,13:20,0.668,0.944,0.626,1.160,0.806,0.387,0.669,0.636,�k�k��,6.6,��
2020/05/21,13:30,0.666,0.944,0.627,1.163,0.805,0.384,0.668,0.638,�k�k��,6.1,��
2020/05/21,13:40,0.665,0.944,0.627,1.161,0.806,0.385,0.670,0.637,�k�k��,6.5,��
2020/05/21,13:50,0.667,0.944,0.627,1.163,0.806,0.385,0.670,0.637,�k�k��,6.2,��
2020/05/21,14:00,0.669,0.943,0.626,1.162,0.806,0.386,0.669,0.638,�k�k��,5.8,��
2020/05/21,14:10,0.669,0.944,0.627,1.163,0.806,0.386,0.670,0.638,�k�k��,6.5,��
2020/05/21,14:20,0.671,0.943,0.625,1.161,0.806,0.385,0.668,0.637,�k�k��,6.5,��
2020/05/21,14:30,0.670,0.947,0.625,1.164,0.806,0.387,0.670,0.638,�k�k��,6.4,��
2020/05/21,14:40,0.671,0.947,0.626,1.161,0.808,0.386,0.668,0.637,�k�k��,6.5,��
2020/05/21,14:50,0.670,0.949,0.628,1.164,0.807,0.387,0.671,0.637,�k�k��,5.9,��
2020/05/21,15:00,0.673,0.949,0.629,1.163,0.807,0.385,0.672,0.640,�k,5.1,��
2020/05/21,15:10,0.670,0.949,0.630,1.162,0.807,0.387,0.672,0.639,�k�k��,5.1,��
2020/05/21,15:20,0.672,0.949,0.629,1.164,0.809,0.385,0.671,0.637,�k�k��,4.9,��
2020/05/21,15:30,0.671,0.952,0.631,1.164,0.810,0.387,0.671,0.638,�k�k��,4.9,��
2020/05/21,15:40,0.672,0.951,0.629,1.166,0.810,0.386,0.671,0.637,�k�k��,5.0,��
2020/05/21,15:50,0.673,0.949,0.630,1.165,0.809,0.387,0.671,0.640,�k,5.7,��
2020/05/21,16:00,0.671,0.950,0.629,1.162,0.811,0.388,0.672,0.639,�k�k��,4.4,��
2020/05/21,16:10,0.671,0.954,0.630,1.161,0.811,0.387,0.672,0.639,�k,4.9,��
2020/05/21,16:20,0.671,0.952,0.630,1.166,0.811,0.387,0.672,0.637,�k,5.2,��
2020/05/21,16:30,0.672,0.955,0.629,1.164,0.810,0.387,0.670,0.638,�k�k��,5.6,��
2020/05/21,16:40,0.670,0.956,0.630,1.165,0.811,0.388,0.673,0.638,�k,5.4,��
2020/05/21,16:50,0.673,0.956,0.631,1.167,0.811,0.387,0.672,0.638,�k,4.0,��
2020/05/21,17:00,0.674,0.956,0.630,1.165,0.813,0.387,0.673,0.638,�k,5.4,��
2020/05/21,17:10,0.673,0.956,0.630,1.165,0.812,0.388,0.673,0.638,�k�k��,5.7,��
2020/05/21,17:20,0.673,0.953,0.628,1.166,0.810,0.386,0.672,0.638,�k,5.1,��
2020/05/21,17:30,0.671,0.955,0.631,1.164,0.811,0.387,0.671,0.639,�k�k��,4.9,��
2020/05/21,17:40,0.673,0.955,0.630,1.165,0.812,0.387,0.671,0.641,�k,4.1,��
2020/05/21,17:50,0.672,0.957,0.631,1.166,0.812,0.387,0.671,0.639,�k,3.9,�L
2020/05/21,18:00,0.674,0.959,0.630,1.167,0.813,0.388,0.671,0.641,�k,3.4,��
2020/05/21,18:10,0.671,0.957,0.629,1.165,0.811,0.387,0.672,0.641,�k�k��,3.1,��
2020/05/21,18:20,0.673,0.958,0.631,1.166,0.813,0.387,0.673,0.641,�k�k��,4.0,��
2020/05/21,18:30,0.674,0.957,0.631,1.166,0.815,0.388,0.673,0.639,�k,3.7,��
2020/05/21,18:40,0.672,0.957,0.631,1.168,0.815,0.388,0.673,0.642,�k�k��,3.7,�L
2020/05/21,18:50,0.671,0.959,0.629,1.166,0.815,0.387,0.673,0.641,�k,3.9,�L
2020/05/21,19:00,0.672,0.958,0.632,1.166,0.816,0.388,0.674,0.641,�k,3.9,�L
2020/05/21,19:10,0.672,0.958,0.630,1.167,0.814,0.388,0.673,0.640,�k,3.9,�L
2020/05/21,19:20,0.672,0.956,0.628,1.166,0.814,0.387,0.675,0.641,�k,3.2,��
2020/05/21,19:30,0.672,0.957,0.632,1.166,0.814,0.388,0.672,0.641,�k�k��,2.9,��
2020/05/21,19:40,0.674,0.958,0.631,1.167,0.816,0.387,0.674,0.641,�k�k��,3.5,�L
2020/05/21,19:50,0.673,0.958,0.628,1.168,0.816,0.387,0.673,0.641,�k�k��,3.6,��
2020/05/21,20:00,0.672,0.958,0.633,1.166,0.818,0.388,0.673,0.642,�k�k��,3.9,��
2020/05/21,20:10,0.672,0.957,0.629,1.167,0.816,0.387,0.673,0.640,�k�k��,3.6,��
2020/05/21,20:20,0.672,0.958,0.630,1.168,0.815,0.389,0.673,0.640,�k�k��,2.5,��
2020/05/21,20:30,0.673,0.957,0.631,1.165,0.815,0.387,0.673,0.643,�k�k��,3.3,��
2020/05/21,20:40,0.672,0.957,0.629,1.166,0.814,0.389,0.674,0.642,�k�k��,2.6,��
2020/05/21,20:50,0.673,0.958,0.629,1.169,0.815,0.387,0.674,0.642,�k�k��,3.2,��
2020/05/21,21:00,0.672,0.959,0.629,1.166,0.818,0.387,0.674,0.642,�k�k��,2.9,��
2020/05/21,21:10,0.672,0.959,0.631,1.167,0.814,0.388,0.674,0.642,�k�k��,4.3,��
2020/05/21,21:20,0.671,0.958,0.630,1.168,0.815,0.387,0.673,0.642,�k�k��,3.6,��
2020/05/21,21:30,0.672,0.959,0.630,1.167,0.817,0.388,0.674,0.641,�k�k��,4.3,��
2020/05/21,21:40,0.672,0.958,0.629,1.166,0.816,0.387,0.674,0.641,�k�k��,4.4,��
2020/05/21,21:50,0.671,0.959,0.628,1.168,0.818,0.388,0.674,0.642,�k�k��,4.3,��
2020/05/21,22:00,0.674,0.957,0.631,1.169,0.814,0.388,0.673,0.641,�k�k��,4.3,��
2020/05/21,22:10,0.672,0.958,0.631,1.165,0.816,0.388,0.675,0.639,�k�k��,5.2,��
2020/05/21,22:20,0.673,0.960,0.631,1.168,0.817,0.388,0.676,0.642,�k�k��,5.2,��
2020/05/21,22:30,0.671,0.960,0.632,1.170,0.816,0.387,0.676,0.641,�k�k��,4.8,��
2020/05/21,22:40,0.673,0.958,0.631,1.168,0.818,0.388,0.674,0.641,�k�k��,4.5,��
2020/05/21,22:50,0.672,0.960,0.631,1.168,0.817,0.390,0.676,0.642,�k�k��,5.2,��
2020/05/21,23:00,0.672,0.957,0.631,1.168,0.819,0.388,0.673,0.641,�k�k��,4.6,��
2020/05/21,23:10,0.673,0.961,0.631,1.169,0.817,0.388,0.674,0.642,�k�k��,4.4,�L
2020/05/21,23:20,0.673,0.961,0.631,1.170,0.819,0.388,0.673,0.641,�k��,5.1,�L
2020/05/21,23:30,0.672,0.958,0.632,1.166,0.818,0.388,0.675,0.642,�k��,4.7,�L
2020/05/21,23:40,0.673,0.958,0.629,1.167,0.817,0.389,0.675,0.642,�k��,4.9,�L
2020/05/21,23:50,0.671,0.958,0.630,1.168,0.817,0.388,0.675,0.640,�k��,4.6,�L
